Location: ??
(35.4824°N, 139.4679°E)
Time: 07:45:07
(UTC+00:00)

SJ-12 - Pass Details

Date: 29 October 2020
Orbit: 567 x 586 km, 97.7° (Epoch: 02 December)

Event Time Altitude Azimuth Distance (km) Brightness Sun altitude
Rises 19:55:29 0° 8° (N) 2,802 7.4 -14.1°
Reaches altitude 10° 19:57:40 10° 5° (N) 1,895 6.5 -13.6°
Maximum altitude 20:01:43 63° 285° (WNW) 643 3.8 -12.8°
Drops below altitude 10° 20:05:44 10° 203° (SSW) 1,871 6.4 -12.0°
Sets 20:07:52 0° 200° (SSW) 2,762 7.3 -11.6°
